Voltar ao catálogo

FALCON 9 R/B

AtivoHEO
NORAD 60234·ROCKET BODY·🇺🇸 United States

Lançado Jul 8, 2024 de Cape Canaveral Space Force Station

Loading…

Próximas Passagens (próximas 24 horas)

TLE

AtualizadoSource: Space-Track

Época: Sep 6, 2026, 07:38 UTC

1 60234U 24127B   26249.31855929 -.00000470  00000-0  48703-3 0  9993
2 60234  27.7334 357.6593 8345651  11.6090 359.0488  1.03948158  7935

Acompanhe FALCON 9 R/B em tempo real com AllMySat

Download on the App Store